"Pseudo-MPEC" for P12oAYR

Created 2026 Aug 7 2:35:05 UT using Find_Orb

Click here for an explanation of pseudo-MPECs

 
 Astrometry: 
     P12oAYR*0C2026 07 24.57453423 14 51.474+07 28 52.83   ~7OFo 22.23wXNEOCPF51
     P12oAYR 0C2026 07 24.58631723 14 52.055+07 29 03.30   ~7OFo 22.02wXNEOCPF51
     P12oAYR 0C2026 07 24.59838023 14 52.633+07 29 13.92   ~7OFo 22.01wXNEOCPF51
     P12oAYR 0C2026 07 26.51234423 16 33.342+07 57 05.90   ~7QDZ 22.13wXNEOCPF52
     P12oAYR 0C2026 07 26.52197723 16 33.768+07 57 14.01   ~7QDZ 22.40wXNEOCPF52
     P12oAYR 0C2026 07 26.53180623 16 34.219+07 57 22.50   ~7QDZ 22.30wXNEOCPF52
     P12oAYR 0C2026 07 26.57190623 16 36.011+07 57 57.01   ~7QMo 21.77GVNEOCPF51
     P12oAYR 0C2026 07 27.49732923 17 22.194+08 11 05.78   ~7RL5 21.83GVNEOCPF52

Station data:
(F51) Pan-STARRS 1, Haleakala  (N20.707234 W156.255910)  US/Hawaii.
   Observers J. Herman, T. Lowe, P. Minguez, A. Schultz, I. Smith. Measurers
   K. Chambers, T. de Boer, J. Fairlamb, H. Gao, M. Huber, C.-C. Lin, E.
   Magnier, Y. Ramanjooloo, R. Wainscoat, R. Weryk. 1.8-m Ritchey-Chrétien +
   CCD.
(F52) Pan-STARRS 2, Haleakala  (N20.707382 W156.255910)  US/Hawaii.
   Observers J. Herman, T. Lowe, P. Minguez, A. Schultz, I. Smith. Measurers
   K. Chambers, T. de Boer, J. Fairlamb, H. Gao, M. Huber, C.-C. Lin, E.
   Magnier, Y. Ramanjooloo, R. Wainscoat, R. Weryk. 1.8-m Ritchey-Chrétien +
   CCD.

Orbital elements:  P12oAYR
   Perihelion 2026 Aug 10.149175 +/- 2.88 TT =  3:34:48.7 (JD 2461262.649175)
Epoch 2026 Jul 27.0 TT = JDT 2461248.5   Earth MOID: 0.4841      AutoNEOCP
M 355.600531389 +/- 1.1             (J2000 ecliptic)
n   0.310934636 +/- 0.0208          Peri.   77.778250 +/- 2.7
a   2.157860246 +/- 0.0964          Node   252.964782 +/- 1.2
e   0.31253629 +/- 0.0241           Incl.    5.183884 +/- 0.11
P   3.16982                H 20.85  G  0.15   U 10.1
q 1.483450598 +/- 0.0142    Q 2.832269893 +/- 0.179
From 8 observations 2026 July 24-27; mean residual 0".06
Residuals in arcseconds: 
260724 F51  .00   .01-    260726 F52  .05+  .15+    260726 F51  .04-  .02-    
260724 F51  .09+  .03+    260726 F52  .08-  .05-    260727 F52  .02+  .01-    
260724 F51  .07-  .03-    260726 F52  .05+  .04-    

Ephemerides (geocentric):
Date (UTC) HH   RA             Dec           delta  r     elong  mag " sig PA
---- --------  ------------   ------------  ------ ------ -----  --- --------
2026 08 07 03  23 23 59.403   +10 24 51.20  .57238 1.4836 136.7 21.7 16.6 105
2026 08 07 04  23 24 00.477   +10 25 18.35  .57223 1.4836 136.7 21.7 16.7 105
2026 08 07 05  23 24 01.547   +10 25 45.46  .57207 1.4836 136.8 21.7 16.8 105
2026 08 07 06  23 24 02.613   +10 26 12.54  .57192 1.4836 136.8 21.7 17.0 105
2026 08 07 07  23 24 03.675   +10 26 39.58  .57176 1.4836 136.8 21.7 17.1 105
2026 08 07 08  23 24 04.733   +10 27 06.58  .57160 1.4836 136.9 21.7 17.2 105
2026 08 07 09  23 24 05.787   +10 27 33.54  .57145 1.4836 136.9 21.7 17.4 105
2026 08 07 10  23 24 06.838   +10 28 00.46  .57129 1.4836 136.9 21.7 17.5 105
2026 08 07 11  23 24 07.884   +10 28 27.35  .57114 1.4836 136.9 21.7 17.6 105
2026 08 07 12  23 24 08.927   +10 28 54.19  .57098 1.4836 137.0 21.7 17.7 105
2026 08 07 13  23 24 09.965   +10 29 21.00  .57083 1.4836 137.0 21.7 17.9 105
2026 08 07 14  23 24 11.000   +10 29 47.77  .57068 1.4836 137.0 21.7 18.0 104
2026 08 07 15  23 24 12.031   +10 30 14.51  .57052 1.4836 137.1 21.7 18.1 104
2026 08 07 16  23 24 13.058   +10 30 41.20  .57037 1.4836 137.1 21.7 18.3 104
2026 08 07 17  23 24 14.081   +10 31 07.86  .57021 1.4836 137.1 21.7 18.4 104
2026 08 07 18  23 24 15.100   +10 31 34.48  .57006 1.4836 137.2 21.7 18.6 104
2026 08 07 19  23 24 16.115   +10 32 01.06  .56991 1.4836 137.2 21.7 18.7 104
2026 08 07 20  23 24 17.127   +10 32 27.60  .56975 1.4836 137.2 21.7 18.8 104
2026 08 07 21  23 24 18.134   +10 32 54.10  .56960 1.4836 137.2 21.7 19.0 104
2026 08 07 22  23 24 19.137   +10 33 20.57  .56945 1.4836 137.3 21.7 19.1 104
2026 08 07 23  23 24 20.137   +10 33 46.99  .56929 1.4836 137.3 21.7 19.2 104
2026 08 08 00  23 24 21.133   +10 34 13.38  .56914 1.4835 137.3 21.7 19.4 104
2026 08 08 01  23 24 22.124   +10 34 39.73  .56899 1.4835 137.4 21.7 19.5 104
2026 08 08 02  23 24 23.112   +10 35 06.04  .56884 1.4835 137.4 21.7 19.7 104
2026 08 08 03  23 24 24.096   +10 35 32.31  .56868 1.4835 137.4 21.7 19.8 104
2026 08 08 04  23 24 25.076   +10 35 58.55  .56853 1.4835 137.5 21.7 20.0 104
2026 08 08 05  23 24 26.052   +10 36 24.74  .56838 1.4835 137.5 21.7 20.1 104
2026 08 08 06  23 24 27.024   +10 36 50.90  .56823 1.4835 137.5 21.7 20.2 103
2026 08 08 07  23 24 27.992   +10 37 17.01  .56808 1.4835 137.5 21.7 20.4 103
2026 08 08 08  23 24 28.957   +10 37 43.09  .56793 1.4835 137.6 21.7 20.5 103
2026 08 08 09  23 24 29.917   +10 38 09.13  .56777 1.4835 137.6 21.7 20.7 103
2026 08 08 10  23 24 30.873   +10 38 35.13  .56762 1.4835 137.6 21.7 20.8 103
2026 08 08 11  23 24 31.826   +10 39 01.09  .56747 1.4835 137.7 21.7 21.0 103
2026 08 08 12  23 24 32.775   +10 39 27.01  .56732 1.4835 137.7 21.7 21.1 103
2026 08 08 13  23 24 33.719   +10 39 52.89  .56717 1.4835 137.7 21.7 21.3 103
2026 08 08 14  23 24 34.660   +10 40 18.73  .56702 1.4835 137.8 21.7 21.4 103
2026 08 08 15  23 24 35.597   +10 40 44.54  .56687 1.4835 137.8 21.7 21.6 103
2026 08 08 16  23 24 36.530   +10 41 10.30  .56672 1.4835 137.8 21.7 21.7 103
2026 08 08 17  23 24 37.459   +10 41 36.03  .56657 1.4835 137.8 21.7 21.9 103
2026 08 08 18  23 24 38.384   +10 42 01.71  .56642 1.4835 137.9 21.7 22.0 103
2026 08 08 19  23 24 39.305   +10 42 27.36  .56627 1.4835 137.9 21.7 22.2 103
2026 08 08 20  23 24 40.222   +10 42 52.97  .56612 1.4835 137.9 21.7 22.3 103
2026 08 08 21  23 24 41.136   +10 43 18.53  .56597 1.4835 138.0 21.7 22.5 103
2026 08 08 22  23 24 42.045   +10 43 44.06  .56583 1.4835 138.0 21.7 22.6 103
2026 08 08 23  23 24 42.951   +10 44 09.55  .56568 1.4835 138.0 21.7 22.8 102
2026 08 09 00  23 24 43.852   +10 44 35.00  .56553 1.4835 138.1 21.7 23.0 102
2026 08 09 01  23 24 44.750   +10 45 00.40  .56538 1.4835 138.1 21.7 23.1 102
2026 08 09 02  23 24 45.644   +10 45 25.77  .56523 1.4835 138.1 21.7 23.3 102